Home > Weather > Asheville > Past weeks

Flag for U.S.A. Weather for the Past 2 Weeks in Asheville, North Carolina, U.S.A.

Now
26 °F

Light snow. Mostly cloudy.


Feels Like: 17 °F
Forecast: 21 / 29 °F
Wind: 9 mph from Northwest

Location: Asheville Regional Airport

Current Time: Feb 9, 2016 at 7:40:20 AM

Latest Report: Feb 9, 2016 at 6:54 AM


Visibility: 9 mi

Pressure: 29.70 "Hg (27.36 "Hg at 647m altitude)

Humidity: 69%

Dew point: 17 °F

Location of AshevilleLocation

Historic Weather in Asheville — Graph

°F

Asheville Temperature Yesterday

Maximum temperature yesterday: 46 °F (at 2:54 PM)
Minimum temperature yesterday: 27 °F (at 5:54 AM)
Average temperature yesterday: 35 °F

High & Low Weather Summary for the Past Weeks

 TemperatureHumidityPressure
High66 °F (Feb 1, 12:54 PM)97% (Jan 26, 8:54 PM)30.43 "Hg (Jan 26, 8:54 PM)
Low19 °F (Jan 25, 7:54 AM)19% (Feb 6, 3:54 PM)29.62 "Hg (Feb 8, 2:54 PM)
Average41 °F66%30.04 "Hg
* Reported Jan 25 5:54 AM — Feb 9 5:54 AM, Asheville, Weather by CustomWeather, © 2016

Note: Actual official high and low records may vary slightly from our data, if they occured in-between our weather recording intervals... More about our weather records

Advertising

Asheville Weather History for the Previous 24 Hours

 ConditionsComfort  
Time TempWeatherWind HumidityBarometerVisibility
5:54 AM
Tue, Feb 9
25 °FLight snow. Overcast.7 mph78%29.69 "Hg6 mi
4:54 AM26 °FLight snow. Overcast.15 mph74%29.66 "Hg9 mi
3:54 AM26 °FLight snow. Passing clouds.8 mph74%29.66 "Hg9 mi
2:54 AM27 °FLight snow. Passing clouds.12 mph72%29.66 "Hg9 mi
1:54 AM30 °FLight snow. Passing clouds.12 mph49%29.65 "Hg9 mi
12:54 AM32 °FLight snow. Overcast.12 mph64%29.65 "Hg9 mi
11:54 PM
Mon, Feb 8
32 °FLight snow. Mostly cloudy.10 mph73%29.65 "Hg8 mi
10:54 PM33 °FLight snow. Overcast.8 mph66%29.66 "Hg9 mi
9:54 PM33 °FLight snow. Passing clouds.8 mph72%29.68 "Hg9 mi
8:54 PM33 °FLight snow. Passing clouds.7 mph75%29.70 "Hg9 mi
7:54 PM35 °FLight snow. Partly cloudy.13 mph72%29.69 "Hg9 mi
6:54 PM36 °FLight snow. Passing clouds.9 mph73%29.70 "Hg9 mi
5:54 PM39 °FLight snow. Broken clouds.6 mph62%29.67 "Hg9 mi
4:54 PM42 °FLight snow. Mostly cloudy.3 mph47%29.66 "Hg9 mi
3:54 PM44 °FMostly cloudy.5 mph38%29.63 "Hg10 mi
2:54 PM46 °FMostly cloudy.8 mph35%29.62 "Hg10 mi
1:54 PM45 °FPartly sunny.14 mph28%29.64 "Hg10 mi
12:54 PM42 °FScattered clouds.8 mph47%29.66 "Hg10 mi
11:54 AM40 °FMostly cloudy.10 mph55%29.70 "Hg10 mi
10:54 AM37 °FMostly cloudy.No wind54%29.72 "Hg10 mi
9:54 AM34 °FOvercast.3 mph64%29.74 "Hg10 mi
8:54 AM31 °FOvercast.3 mph73%29.76 "Hg10 mi
7:54 AM30 °FOvercast.3 mph72%29.78 "Hg10 mi
Weather by CustomWeather, © 2016

See weather overviewHow to use our weather pages